Total_Precipitation_Accumulation
0.25 0.27 0.16 0.02 0.00 0.00 0.00 0.00 0.00 0.00 0.00 0.00 0.00 0.00 0.00 0.01 0.01 0.02 0.02 0.01 0.01 0.01 0.01 0.01 0.04 0.14 0.19 0.23 0.25 0.27 0.34 0.43 0.43 0.36 0.22 0.08 0.02 0.01
0.31 0.29 0.24 0.11 0.02 0.00 0.00 0.00 0.00 0.00 0.00 0.00 0.00 0.00 0.00 0.00 0.01 0.02 0.02 0.01 0.01 0.02 0.02 0.01 0.01 0.02 0.03 0.05 0.09 0.12 0.15 0.19 0.25 0.26 0.20 0.11 0.07 0.05
0.37 0.36 0.30 0.21 0.16 0.03 0.00 0.00 0.00 0.00 0.00 0.00 0.00 0.00 0.00 0.00 0.01 0.02 0.04 0.04 0.02 0.01 0.02 0.02 0.02 0.02 0.03 0.02 0.02 0.02 0.04 0.06 0.08 0.17 0.23 0.24 0.19 0.13
0.15 0.24 0.30 0.29 0.27 0.15 0.09 0.04 0.01 0.00 0.00 0.00 0.00 0.00 0.00 0.00 0.00 0.00 0.01 0.02 0.02 0.00 0.00 0.01 0.02 0.02 0.04 0.03 0.02 0.02 0.01 0.00 0.01 0.05 0.10 0.16 0.24 0.31
0.12 0.10 0.11 0.19 0.26 0.20 0.16 0.10 0.08 0.05 0.02 0.00 0.00 0.00 0.00 0.00 0.00 0.00 0.00 0.00 0.00 0.00 0.00 0.00 0.01 0.01 0.02 0.01 0.01 0.00 0.00 0.00 0.00 0.02 0.04 0.09 0.17 0.27
0.22 0.17 0.12 0.10 0.10 0.08 0.11 0.11 0.09 0.10 0.10 0.06 0.03 0.00 0.00 0.00 0.00 0.00 0.00 0.00 0.01 0.00 0.01 0.00 0.00 0.00 0.00 0.00 0.00 0.00 0.00 0.00 0.00 0.01 0.01 0.01 0.04 0.07
0.21 0.25 0.23 0.20 0.15 0.08 0.05 0.06 0.08 0.11 0.13 0.11 0.09 0.03 0.00 0.00 0.00 0.00 0.00 0.00 0.00 0.00 0.00 0.00 0.00 0.00 0.00 0.00 0.00 0.00 0.00 0.00 0.00 0.00 0.01 0.01 0.01 0.01
0.26 0.17 0.21 0.23 0.23 0.28 0.15 0.08 0.06 0.07 0.07 0.05 0.05 0.03 0.00 0.01 0.01 0.01 0.01 0.00 0.00 0.00 0.00 0.00 0.00 0.00 0.00 0.00 0.00 0.00 0.00 0.00 0.00 0.00 0.01 0.00 0.01 0.01
0.22 0.25 0.24 0.15 0.18 0.21 0.34 0.27 0.20 0.12 0.05 0.03 0.03 0.03 0.01 0.01 0.02 0.02 0.02 0.02 0.01 0.00 0.01 0.02 0.01 0.01 0.01 0.01 0.01 0.00 0.00 0.00 0.00 0.00 0.00 0.01 0.01 0.01
0.17 0.16 0.17 0.21 0.15 0.11 0.18 0.37 0.37 0.26 0.18 0.09 0.02 0.02 0.04 0.03 0.04 0.05 0.07 0.08 0.05 0.04 0.03 0.03 0.01 0.02 0.01 0.01 0.02 0.01 0.00 0.00 0.00 0.00 0.00 0.00 0.01 0.03
0.07 0.06 0.14 0.14 0.14 0.17 0.16 0.23 0.26 0.29 0.24 0.25 0.16 0.10 0.07 0.07 0.06 0.05 0.04 0.02 0.03 0.02 0.01 0.01 0.00 0.00 0.00 0.00 0.00 0.01 0.00 0.00 0.00 0.00 0.01 0.02 0.04 0.05
0.26 0.09 0.08 0.07 0.17 0.14 0.16 0.18 0.27 0.21 0.13 0.23 0.30 0.25 0.22 0.17 0.17 0.10 0.05 0.05 0.03 0.01 0.00 0.01 0.00 0.00 0.00 0.00 0.00 0.00 0.00 0.00 0.00 0.01 0.02 0.02 0.03 0.02
0.49 0.31 0.15 0.05 0.05 0.09 0.11 0.15 0.13 0.10 0.16 0.19 0.20 0.26 0.26 0.19 0.15 0.12 0.09 0.06 0.05 0.03 0.03 0.03 0.01 0.01 0.02 0.02 0.00 0.00 0.00 0.00 0.00 0.00 0.01 0.02 0.03 0.02
0.61 0.49 0.20 0.12 0.04 0.03 0.05 0.08 0.16 0.19 0.16 0.22 0.32 0.41 0.36 0.26 0.16 0.11 0.08 0.06 0.05 0.04 0.06 0.10 0.07 0.03 0.04 0.03 0.02 0.01 0.01 0.01 0.01 0.01 0.01 0.04 0.04 0.03
0.31 0.46 0.60 0.31 0.14 0.09 0.04 0.06 0.11 0.16 0.24 0.30 0.28 0.24 0.21 0.16 0.16 0.23 0.28 0.25 0.20 0.16 0.14 0.09 0.06 0.05 0.04 0.02 0.01 0.01 0.01 0.00 0.00 0.00 0.01 0.02 0.02 0.02
0.19 0.28 0.41 0.70 0.64 0.37 0.20 0.15 0.08 0.08 0.08 0.12 0.17 0.15 0.20 0.26 0.26 0.28 0.35 0.38 0.33 0.27 0.25 0.24 0.19 0.12 0.09 0.07 0.06 0.04 0.04 0.03 0.01 0.01 0.01 0.01 0.01 0.01
0.40 0.25 0.37 0.59 0.98 0.91 0.70 0.40 0.27 0.20 0.14 0.05 0.04 0.08 0.13 0.20 0.27 0.31 0.32 0.36 0.40 0.31 0.23 0.21 0.19 0.13 0.09 0.08 0.08 0.06 0.05 0.05 0.03 0.02 0.02 0.02 0.02 0.03
0.83 0.72 0.52 0.44 0.56 0.90 0.86 0.81 0.61 0.48 0.21 0.09 0.06 0.04 0.05 0.10 0.12 0.18 0.28 0.32 0.29 0.23 0.22 0.20 0.14 0.10 0.09 0.09 0.14 0.06 0.07 0.06 0.05 0.04 0.03 0.03 0.03 0.03
0.83 1.03 0.98 0.75 0.54 0.55 0.74 0.74 0.81 0.70 0.49 0.32 0.20 0.16 0.11 0.13 0.22 0.17 0.16 0.17 0.22 0.23 0.20 0.18 0.14 0.09 0.08 0.06 0.08 0.09 0.04 0.04 0.04 0.03 0.03 0.03 0.02 0.03
0.73 0.89 0.96 1.09 0.86 0.64 0.68 0.83 0.78 0.78 0.79 0.75 0.60 0.39 0.33 0.27 0.21 0.17 0.17 0.16 0.14 0.13 0.16 0.16 0.15 0.15 0.12 0.11 0.12 0.12 0.16 0.10 0.07 0.04 0.04 0.03 0.03 0.03
0.86 0.93 0.93 0.95 1.01 0.97 0.84 0.79 0.90 0.89 0.81 0.80 0.85 0.80 0.70 0.56 0.43 0.33 0.30 0.33 0.29 0.22 0.22 0.21 0.20 0.22 0.16 0.16 0.15 0.16 0.16 0.11 0.06 0.04 0.03 0.03 0.02 0.01
0.87 0.94 0.96 0.85 0.76 0.87 0.98 0.96 0.86 0.90 0.84 0.78 0.74 0.73 0.74 0.77 0.77 0.64 0.46 0.36 0.32 0.29 0.30 0.30 0.27 0.23 0.17 0.14 0.14 0.12 0.11 0.09 0.07 0.04 0.01 0.00 0.00 0.00
0.78 0.80 0.88 0.76 0.64 0.60 0.71 0.80 0.86 0.89 0.85 0.78 0.77 0.69 0.61 0.59 0.65 0.67 0.60 0.45 0.36 0.33 0.28 0.25 0.23 0.19 0.16 0.13 0.11 0.10 0.09 0.07 0.05 0.02 0.00 0.00 0.00 0.00